Time,TemperatureF,DewpointF,PressureIn,WindDirection,WindDirectionDegrees,WindSpeedMPH,WindSpeedGustMPH,Humidity,HourlyPrecipIn,Conditions,Clouds,dailyrainin,SoftwareType,DateUTC
2013-07-16 00:02:00,62.8,54.0,29.73,South,169,0.0,0.0,73,0.00,,,0.00,WeatherCatV1.14B232,2013-07-16 06:02:00,
2013-07-16 00:07:00,62.8,54.0,29.74,South,171,0.0,0.0,73,0.00,,,0.00,WeatherCatV1.14B232,2013-07-16 06:07:00,
2013-07-16 00:12:00,62.5,53.3,29.74,WNW,302,0.0,1.0,72,0.00,,,0.00,WeatherCatV1.14B232,2013-07-16 06:12:00,
2013-07-16 00:17:00,62.3,53.5,29.74,WNW,302,0.0,0.0,73,0.00,,,0.00,WeatherCatV1.14B232,2013-07-16 06:17:00,
2013-07-16 00:22:00,62.2,53.8,29.75,WNW,302,0.0,0.0,74,0.00,,,0.00,WeatherCatV1.14B232,2013-07-16 06:22:00,
2013-07-16 00:27:00,61.9,54.2,29.75,WNW,302,0.0,0.0,76,0.00,,,0.00,WeatherCatV1.14B232,2013-07-16 06:27:00,
2013-07-16 00:32:00,61.5,53.9,29.75,WNW,302,0.0,0.0,76,0.00,,,0.00,WeatherCatV1.14B232,2013-07-16 06:32:00,
2013-07-16 00:37:00,61.3,53.3,29.75,WNW,302,0.0,0.0,75,0.00,,,0.00,WeatherCatV1.14B232,2013-07-16 06:37:00,
2013-07-16 00:42:00,61.2,53.2,29.75,WNW,302,0.0,0.0,75,0.00,,,0.00,WeatherCatV1.14B232,2013-07-16 06:42:00,
2013-07-16 00:47:00,61.4,53.4,29.75,WNW,302,0.0,0.0,75,0.00,,,0.00,WeatherCatV1.14B232,2013-07-16 06:47:00,
2013-07-16 00:52:00,61.4,53.4,29.75,NW,304,0.0,0.0,75,0.00,,,0.00,WeatherCatV1.14B232,2013-07-16 06:52:00,
2013-07-16 00:57:00,61.5,53.5,29.75,NW,304,0.0,0.0,75,0.00,,,0.00,WeatherCatV1.14B232,2013-07-16 06:57:00,
2013-07-16 01:02:00,61.4,53.4,29.75,NW,304,0.0,0.0,75,0.00,,,0.00,WeatherCatV1.14B232,2013-07-16 07:02:00,
2013-07-16 01:07:00,61.3,54.0,29.76,NW,304,0.0,0.0,77,0.00,,,0.00,WeatherCatV1.14B232,2013-07-16 07:07:00,
2013-07-16 01:12:00,61.1,53.8,29.76,NW,306,0.0,0.0,77,0.00,,,0.00,WeatherCatV1.14B232,2013-07-16 07:12:00,
2013-07-16 01:17:00,60.9,54.0,29.76,NW,306,0.0,0.0,78,0.00,,,0.00,WeatherCatV1.14B232,2013-07-16 07:17:00,
2013-07-16 01:22:00,60.7,53.8,29.76,NW,306,0.0,0.0,78,0.00,,,0.00,WeatherCatV1.14B232,2013-07-16 07:22:00,
2013-07-16 01:27:00,60.6,53.7,29.76,NW,307,0.0,0.0,78,0.00,,,0.00,WeatherCatV1.14B232,2013-07-16 07:27:00,
2013-07-16 01:32:00,60.4,53.5,29.76,NW,306,0.0,0.0,78,0.00,,,0.00,WeatherCatV1.14B232,2013-07-16 07:32:00,
2013-07-16 01:37:00,60.2,54.0,29.76,NW,306,0.0,0.0,80,0.00,,,0.00,WeatherCatV1.14B232,2013-07-16 07:37:00,
2013-07-16 01:42:00,60.0,53.5,29.76,NW,307,0.0,0.0,79,0.00,,,0.00,WeatherCatV1.14B232,2013-07-16 07:42:00,
2013-07-16 01:47:00,59.7,53.5,29.76,NW,306,0.0,0.0,80,0.00,,,0.00,WeatherCatV1.14B232,2013-07-16 07:47:00,
2013-07-16 01:52:00,59.3,53.5,29.76,NW,307,0.0,0.0,81,0.00,,,0.00,WeatherCatV1.14B232,2013-07-16 07:52:00,
2013-07-16 01:57:00,59.0,53.5,29.77,NW,306,0.0,0.0,82,0.00,,,0.00,WeatherCatV1.14B232,2013-07-16 07:57:00,
2013-07-16 02:02:00,58.7,53.2,29.77,NW,306,0.0,0.0,82,0.00,,,0.00,WeatherCatV1.14B232,2013-07-16 08:02:00,
2013-07-16 02:07:00,58.5,53.4,29.77,NW,306,0.0,0.0,83,0.00,,,0.00,WeatherCatV1.14B232,2013-07-16 08:07:00,
2013-07-16 02:12:00,58.2,52.7,29.77,NW,306,0.0,0.0,82,0.00,,,0.00,WeatherCatV1.14B232,2013-07-16 08:12:00,
2013-07-16 02:17:00,57.8,53.3,29.77,NW,306,0.0,0.0,85,0.00,,,0.00,WeatherCatV1.14B232,2013-07-16 08:17:00,
2013-07-16 02:22:00,57.6,53.1,29.77,NW,307,0.0,0.0,85,0.00,,,0.00,WeatherCatV1.14B232,2013-07-16 08:22:00,
2013-07-16 02:27:00,57.4,52.9,29.77,NW,306,0.0,0.0,85,0.00,,,0.00,WeatherCatV1.14B232,2013-07-16 08:27:00,
2013-07-16 02:32:00,57.2,52.7,29.77,NW,306,0.0,0.0,85,0.00,,,0.00,WeatherCatV1.14B232,2013-07-16 08:32:00,
2013-07-16 02:37:00,57.0,52.5,29.77,NW,306,0.0,0.0,85,0.00,,,0.00,WeatherCatV1.14B232,2013-07-16 08:37:00,
2013-07-16 02:42:00,56.8,52.7,29.77,NW,306,0.0,0.0,86,0.00,,,0.00,WeatherCatV1.14B232,2013-07-16 08:42:00,
2013-07-16 02:47:00,56.6,52.5,29.77,NW,307,0.0,0.0,86,0.00,,,0.00,WeatherCatV1.14B232,2013-07-16 08:47:00,
2013-07-16 02:52:00,56.4,52.6,29.77,NW,307,0.0,0.0,87,0.00,,,0.00,WeatherCatV1.14B232,2013-07-16 08:52:00,
2013-07-16 02:57:00,56.1,52.3,29.76,NW,306,0.0,0.0,87,0.00,,,0.00,WeatherCatV1.14B232,2013-07-16 08:57:00,
2013-07-16 03:02:00,55.9,52.1,29.77,NW,307,0.0,0.0,87,0.00,,,0.00,WeatherCatV1.14B232,2013-07-16 09:02:00,
2013-07-16 03:07:00,55.6,51.2,29.77,NW,307,0.0,0.0,85,0.00,,,0.00,WeatherCatV1.14B232,2013-07-16 09:07:00,
2013-07-16 03:12:00,55.5,51.4,29.77,NW,307,0.0,0.0,86,0.00,,,0.00,WeatherCatV1.14B232,2013-07-16 09:12:00,
2013-07-16 03:17:00,55.7,50.9,29.77,NNE,13,0.0,1.0,84,0.00,,,0.00,WeatherCatV1.14B232,2013-07-16 09:17:00,
2013-07-16 03:22:00,55.8,50.7,29.77,NNE,13,0.0,0.0,83,0.00,,,0.00,WeatherCatV1.14B232,2013-07-16 09:22:00,
2013-07-16 03:27:00,55.7,51.9,29.77,SSE,158,0.0,1.0,87,0.00,,,0.00,WeatherCatV1.14B232,2013-07-16 09:27:00,
2013-07-16 03:32:00,55.3,51.5,29.77,SSE,153,0.0,0.0,87,0.00,,,0.00,WeatherCatV1.14B232,2013-07-16 09:32:00,
2013-07-16 03:37:00,55.1,51.3,29.77,SSE,155,0.0,0.0,87,0.00,,,0.00,WeatherCatV1.14B232,2013-07-16 09:37:00,
2013-07-16 03:42:00,55.0,50.6,29.78,South,183,1.0,1.0,85,0.00,,,0.00,WeatherCatV1.14B232,2013-07-16 09:42:00,
2013-07-16 03:47:00,55.1,51.0,29.78,South,171,0.0,0.0,86,0.00,,,0.00,WeatherCatV1.14B232,2013-07-16 09:47:00,
2013-07-16 03:52:00,54.9,50.8,29.78,WNW,298,1.0,1.0,86,0.00,,,0.00,WeatherCatV1.14B232,2013-07-16 09:52:00,
2013-07-16 03:57:00,54.9,50.5,29.78,NW,323,0.0,1.0,85,0.00,,,0.00,WeatherCatV1.14B232,2013-07-16 09:57:00,
2013-07-16 04:02:00,54.9,50.2,29.78,NW,323,0.0,0.0,84,0.00,,,0.00,WeatherCatV1.14B232,2013-07-16 10:02:00,
2013-07-16 04:07:00,54.8,50.1,29.78,NW,323,0.0,0.0,84,0.00,,,0.00,WeatherCatV1.14B232,2013-07-16 10:07:00,
2013-07-16 04:12:00,54.7,50.3,29.78,NW,323,0.0,0.0,85,0.00,,,0.00,WeatherCatV1.14B232,2013-07-16 10:12:00,
2013-07-16 04:17:00,54.4,50.3,29.78,NW,323,0.0,0.0,86,0.00,,,0.00,WeatherCatV1.14B232,2013-07-16 10:17:00,
2013-07-16 04:22:00,54.1,50.3,29.78,NW,323,0.0,0.0,87,0.00,,,0.00,WeatherCatV1.14B232,2013-07-16 10:22:00,
2013-07-16 04:27:00,53.8,50.0,29.79,NW,323,0.0,0.0,87,0.00,,,0.00,WeatherCatV1.14B232,2013-07-16 10:27:00,
2013-07-16 04:32:00,53.5,49.7,29.79,NW,323,0.0,0.0,87,0.00,,,0.00,WeatherCatV1.14B232,2013-07-16 10:32:00,
2013-07-16 04:37:00,53.3,50.1,29.79,NW,323,0.0,0.0,89,0.00,,,0.00,WeatherCatV1.14B232,2013-07-16 10:37:00,
2013-07-16 04:42:00,53.1,49.9,29.79,NW,323,0.0,0.0,89,0.00,,,0.00,WeatherCatV1.14B232,2013-07-16 10:42:00,
2013-07-16 04:47:00,52.9,50.0,29.79,NW,323,0.0,0.0,90,0.00,,,0.00,WeatherCatV1.14B232,2013-07-16 10:47:00,
2013-07-16 04:52:00,52.9,50.0,29.80,SSW,200,1.0,1.0,90,0.00,,,0.00,WeatherCatV1.14B232,2013-07-16 10:52:00,
2013-07-16 04:57:00,52.9,49.7,29.80,SSW,204,0.0,0.0,89,0.00,,,0.00,WeatherCatV1.14B232,2013-07-16 10:57:00,
2013-07-16 05:02:00,52.9,49.7,29.80,SSW,204,0.0,0.0,89,0.00,,,0.00,WeatherCatV1.14B232,2013-07-16 11:02:00,
2013-07-16 05:07:00,52.8,49.6,29.80,SSW,204,0.0,0.0,89,0.00,,,0.00,WeatherCatV1.14B232,2013-07-16 11:07:00,
2013-07-16 05:12:00,52.6,49.8,29.80,SSW,205,0.0,0.0,90,0.00,,,0.00,WeatherCatV1.14B232,2013-07-16 11:12:00,
2013-07-16 05:17:00,52.4,49.8,29.80,SSW,204,0.0,0.0,91,0.00,,,0.00,WeatherCatV1.14B232,2013-07-16 11:17:00,
2013-07-16 05:22:00,52.3,49.8,29.80,SSW,204,0.0,0.0,91,0.00,,,0.00,WeatherCatV1.14B232,2013-07-16 11:22:00,
2013-07-16 05:27:00,52.1,49.6,29.80,SSW,204,0.0,0.0,91,0.00,,,0.00,WeatherCatV1.14B232,2013-07-16 11:27:00,
2013-07-16 05:32:00,52.0,49.7,29.81,SSW,205,0.0,0.0,92,0.00,,,0.00,WeatherCatV1.14B232,2013-07-16 11:32:00,
2013-07-16 05:37:00,51.8,49.5,29.81,SSW,204,0.0,0.0,92,0.00,,,0.00,WeatherCatV1.14B232,2013-07-16 11:37:00,
2013-07-16 05:42:00,51.6,49.4,29.81,SSW,204,0.0,0.0,92,0.00,,,0.00,WeatherCatV1.14B232,2013-07-16 11:42:00,
2013-07-16 05:47:00,51.5,49.3,29.81,SSW,204,0.0,0.0,92,0.00,,,0.00,WeatherCatV1.14B232,2013-07-16 11:47:00,
2013-07-16 05:52:00,51.3,49.3,29.81,SSW,204,0.0,0.0,93,0.00,,,0.00,WeatherCatV1.14B232,2013-07-16 11:52:00,
2013-07-16 05:57:00,51.2,49.2,29.81,SSW,204,0.0,0.0,93,0.00,,,0.00,WeatherCatV1.14B232,2013-07-16 11:57:00,
2013-07-16 06:02:00,51.2,49.5,29.81,SSW,205,0.0,0.0,94,0.00,,,0.00,WeatherCatV1.14B232,2013-07-16 12:02:00,
2013-07-16 06:07:00,51.2,49.5,29.82,ESE,113,0.0,1.0,94,0.00,,,0.00,WeatherCatV1.14B232,2013-07-16 12:07:00,
2013-07-16 06:12:00,51.3,49.6,29.82,ESE,118,0.0,1.0,94,0.00,,,0.00,WeatherCatV1.14B232,2013-07-16 12:12:00,
2013-07-16 06:17:00,51.3,49.3,29.82,SSW,194,0.0,0.0,93,0.00,,,0.00,WeatherCatV1.14B232,2013-07-16 12:17:00,
2013-07-16 06:22:00,51.3,49.3,29.82,SSW,194,0.0,0.0,93,0.00,,,0.00,WeatherCatV1.14B232,2013-07-16 12:22:00,
2013-07-16 06:27:00,51.4,49.4,29.82,SSW,194,0.0,0.0,93,0.00,,,0.00,WeatherCatV1.14B232,2013-07-16 12:27:00,
2013-07-16 06:32:00,51.7,49.5,29.82,SE,146,0.0,1.0,92,0.00,,,0.00,WeatherCatV1.14B232,2013-07-16 12:32:00,
2013-07-16 06:37:00,52.0,49.7,29.82,SE,145,0.0,0.0,92,0.00,,,0.00,WeatherCatV1.14B232,2013-07-16 12:37:00,
2013-07-16 06:42:00,52.7,49.8,29.83,SSE,165,0.0,0.0,90,0.00,,,0.00,WeatherCatV1.14B232,2013-07-16 12:42:00,
2013-07-16 06:47:00,53.4,50.2,29.83,SSE,165,0.0,0.0,89,0.00,,,0.00,WeatherCatV1.14B232,2013-07-16 12:47:00,
2013-07-16 06:52:00,54.2,50.4,29.83,SSE,165,0.0,0.0,87,0.00,,,0.00,WeatherCatV1.14B232,2013-07-16 12:52:00,
2013-07-16 06:57:00,55.3,50.5,29.83,SSE,165,0.0,0.0,84,0.00,,,0.00,WeatherCatV1.14B232,2013-07-16 12:57:00,
2013-07-16 07:02:00,56.0,50.9,29.83,West,278,0.0,0.0,83,0.00,,,0.00,WeatherCatV1.14B232,2013-07-16 13:02:00,
2013-07-16 07:07:00,56.7,50.9,29.83,NW,322,0.0,1.0,81,0.00,,,0.00,WeatherCatV1.14B232,2013-07-16 13:07:00,
2013-07-16 07:12:00,57.6,50.8,29.83,NW,321,0.0,0.0,78,0.00,,,0.00,WeatherCatV1.14B232,2013-07-16 13:12:00,
2013-07-16 07:17:00,58.4,50.5,29.83,NNW,338,0.0,1.0,75,0.00,,,0.00,WeatherCatV1.14B232,2013-07-16 13:17:00,
2013-07-16 07:22:00,59.2,50.5,29.83,NNW,338,0.0,0.0,73,0.00,,,0.00,WeatherCatV1.14B232,2013-07-16 13:22:00,
2013-07-16 07:27:00,59.9,50.5,29.83,NNE,20,0.0,1.0,71,0.00,,,0.00,WeatherCatV1.14B232,2013-07-16 13:27:00,
2013-07-16 07:32:00,60.9,51.4,29.83,NNE,20,0.0,0.0,71,0.00,,,0.00,WeatherCatV1.14B232,2013-07-16 13:32:00,
2013-07-16 07:37:00,62.2,51.1,29.83,NNE,20,0.0,1.0,67,0.00,,,0.00,WeatherCatV1.14B232,2013-07-16 13:37:00,
2013-07-16 07:42:00,62.7,51.2,29.83,West,273,0.0,0.0,66,0.00,,,0.00,WeatherCatV1.14B232,2013-07-16 13:42:00,
2013-07-16 07:47:00,63.4,51.0,29.84,East,98,0.0,1.0,64,0.00,,,0.00,WeatherCatV1.14B232,2013-07-16 13:47:00,
2013-07-16 07:52:00,63.6,51.6,29.83,East,92,0.0,0.0,65,0.00,,,0.00,WeatherCatV1.14B232,2013-07-16 13:52:00,
2013-07-16 07:57:00,64.3,52.3,29.83,East,90,0.0,1.0,65,0.00,,,0.00,WeatherCatV1.14B232,2013-07-16 13:57:00,
2013-07-16 08:02:00,64.9,52.0,29.83,East,91,0.0,2.0,63,0.00,,,0.00,WeatherCatV1.14B232,2013-07-16 14:02:00,
2013-07-16 08:07:00,65.4,52.0,29.83,NNE,33,1.0,1.0,62,0.00,,,0.00,WeatherCatV1.14B232,2013-07-16 14:07:00,
2013-07-16 08:12:00,65.8,52.0,29.83,North,1,1.0,1.0,61,0.00,,,0.00,WeatherCatV1.14B232,2013-07-16 14:12:00,
2013-07-16 08:17:00,65.8,52.4,29.83,North,8,0.0,0.0,62,0.00,,,0.00,WeatherCatV1.14B232,2013-07-16 14:17:00,
2013-07-16 08:22:00,65.9,51.6,29.83,NNW,335,0.0,1.0,60,0.00,,,0.00,WeatherCatV1.14B232,2013-07-16 14:22:00,
2013-07-16 08:27:00,66.6,52.3,29.82,NE,51,1.0,2.0,60,0.00,,,0.00,WeatherCatV1.14B232,2013-07-16 14:27:00,
2013-07-16 08:32:00,66.0,52.2,29.83,NNW,336,0.0,2.0,61,0.00,,,0.00,WeatherCatV1.14B232,2013-07-16 14:32:00,
2013-07-16 08:37:00,66.0,52.2,29.83,NE,48,1.0,2.0,61,0.00,,,0.00,WeatherCatV1.14B232,2013-07-16 14:37:00,
2013-07-16 08:42:00,66.3,52.0,29.83,North,352,1.0,2.0,60,0.00,,,0.00,WeatherCatV1.14B232,2013-07-16 14:42:00,
2013-07-16 08:47:00,66.7,52.4,29.82,NNW,341,1.0,2.0,60,0.00,,,0.00,WeatherCatV1.14B232,2013-07-16 14:47:00,
2013-07-16 08:52:00,66.9,53.0,29.82,NE,51,0.0,1.0,61,0.00,,,0.00,WeatherCatV1.14B232,2013-07-16 14:52:00,
2013-07-16 08:57:00,67.8,52.9,29.82,NNE,27,1.0,1.0,59,0.00,,,0.00,WeatherCatV1.14B232,2013-07-16 14:57:00,
2013-07-16 09:02:00,67.7,52.8,29.82,NNE,19,0.0,1.0,59,0.00,,,0.00,WeatherCatV1.14B232,2013-07-16 15:02:00,
2013-07-16 09:07:00,68.4,52.6,29.82,NNW,341,2.0,3.0,57,0.00,,,0.00,WeatherCatV1.14B232,2013-07-16 15:07:00,
2013-07-16 09:12:00,68.4,52.1,29.81,NNE,32,2.0,4.0,56,0.00,,,0.00,WeatherCatV1.14B232,2013-07-16 15:12:00,
2013-07-16 09:17:00,68.7,52.4,29.81,NNE,27,2.0,4.0,56,0.00,,,0.00,WeatherCatV1.14B232,2013-07-16 15:17:00,
2013-07-16 09:22:00,69.0,51.7,29.81,NNW,345,1.0,3.0,54,0.00,,,0.00,WeatherCatV1.14B232,2013-07-16 15:22:00,
2013-07-16 09:27:00,69.9,53.0,29.81,NNW,333,1.0,1.0,55,0.00,,,0.00,WeatherCatV1.14B232,2013-07-16 15:27:00,
2013-07-16 09:32:00,70.8,51.8,29.80,NNE,12,0.0,2.0,51,0.00,,,0.00,WeatherCatV1.14B232,2013-07-16 15:32:00,
2013-07-16 09:37:00,71.8,53.2,29.80,ENE,78,0.0,1.0,52,0.00,,,0.00,WeatherCatV1.14B232,2013-07-16 15:37:00,
2013-07-16 09:42:00,72.7,52.4,29.80,NNW,335,1.0,3.0,49,0.00,,,0.00,WeatherCatV1.14B232,2013-07-16 15:42:00,
2013-07-16 09:47:00,73.4,52.5,29.80,ENE,62,1.0,3.0,48,0.00,,,0.00,WeatherCatV1.14B232,2013-07-16 15:47:00,
2013-07-16 09:52:00,73.8,52.3,29.79,NNE,28,2.0,2.0,47,0.00,,,0.00,WeatherCatV1.14B232,2013-07-16 15:52:00,
2013-07-16 09:57:00,73.6,52.7,29.79,ESE,121,0.0,1.0,48,0.00,,,0.00,WeatherCatV1.14B232,2013-07-16 15:57:00,
2013-07-16 10:02:00,74.8,52.0,29.78,East,85,0.0,2.0,45,0.00,,,0.00,WeatherCatV1.14B232,2013-07-16 16:02:00,
2013-07-16 10:07:00,75.2,52.4,29.78,SE,140,0.0,1.0,45,0.00,,,0.00,WeatherCatV1.14B232,2013-07-16 16:07:00,
2013-07-16 10:12:00,75.0,51.0,29.78,NNW,341,1.0,2.0,43,0.00,,,0.00,WeatherCatV1.14B232,2013-07-16 16:12:00,
2013-07-16 10:17:00,75.2,51.8,29.78,SSE,152,0.0,3.0,44,0.00,,,0.00,WeatherCatV1.14B232,2013-07-16 16:17:00,
2013-07-16 10:22:00,75.9,51.8,29.77,East,96,1.0,2.0,43,0.00,,,0.00,WeatherCatV1.14B232,2013-07-16 16:22:00,
2013-07-16 10:27:00,76.7,52.5,29.77,NE,46,0.0,1.0,43,0.00,,,0.00,WeatherCatV1.14B232,2013-07-16 16:27:00,
2013-07-16 10:32:00,77.3,52.4,29.77,ENE,70,0.0,1.0,42,0.00,,,0.00,WeatherCatV1.14B232,2013-07-16 16:32:00,
2013-07-16 10:37:00,78.3,52.6,29.77,South,170,0.0,1.0,41,0.00,,,0.00,WeatherCatV1.14B232,2013-07-16 16:37:00,
2013-07-16 10:42:00,79.0,52.6,29.76,NNE,32,0.0,3.0,40,0.00,,,0.00,WeatherCatV1.14B232,2013-07-16 16:42:00,
2013-07-16 10:47:00,78.4,52.1,29.76,NNW,338,0.0,1.0,40,0.00,,,0.00,WeatherCatV1.14B232,2013-07-16 16:47:00,
2013-07-16 10:52:00,79.0,53.3,29.76,SSE,158,1.0,2.0,41,0.00,,,0.00,WeatherCatV1.14B232,2013-07-16 16:52:00,
2013-07-16 10:57:00,79.2,52.1,29.76,SE,146,2.0,2.0,39,0.00,,,0.00,WeatherCatV1.14B232,2013-07-16 16:57:00,
2013-07-16 11:02:00,79.1,52.0,29.75,South,169,1.0,2.0,39,0.00,,,0.00,WeatherCatV1.14B232,2013-07-16 17:02:00,
2013-07-16 11:07:00,80.5,52.5,29.75,ESE,110,1.0,1.0,38,0.00,,,0.00,WeatherCatV1.14B232,2013-07-16 17:07:00,
2013-07-16 11:12:00,80.3,52.4,29.75,NE,35,0.0,4.0,38,0.00,,,0.00,WeatherCatV1.14B232,2013-07-16 17:12:00,
2013-07-16 11:17:00,79.8,52.6,29.75,NNE,27,0.0,3.0,39,0.00,,,0.00,WeatherCatV1.14B232,2013-07-16 17:17:00,
2013-07-16 11:22:00,79.0,52.6,29.75,ENE,75,1.0,6.0,40,0.00,,,0.00,WeatherCatV1.14B232,2013-07-16 17:22:00,
2013-07-16 11:27:00,79.4,52.9,29.75,NNE,29,0.0,5.0,40,0.00,,,0.00,WeatherCatV1.14B232,2013-07-16 17:27:00,
2013-07-16 11:32:00,79.7,53.9,29.75,WNW,282,1.0,1.0,41,0.00,,,0.00,WeatherCatV1.14B232,2013-07-16 17:32:00,
2013-07-16 11:37:00,80.3,53.1,29.75,NW,311,1.0,4.0,39,0.00,,,0.00,WeatherCatV1.14B232,2013-07-16 17:37:00,
2013-07-16 11:42:00,81.0,53.7,29.74,NE,44,0.0,1.0,39,0.00,,,0.00,WeatherCatV1.14B232,2013-07-16 17:42:00,
2013-07-16 11:47:00,80.9,53.6,29.74,NNE,19,0.0,6.0,39,0.00,,,0.00,WeatherCatV1.14B232,2013-07-16 17:47:00,
2013-07-16 11:52:00,81.9,53.0,29.74,ESE,102,1.0,3.0,37,0.00,,,0.00,WeatherCatV1.14B232,2013-07-16 17:52:00,
2013-07-16 11:57:00,82.9,52.4,29.74,East,91,0.0,1.0,35,0.00,,,0.00,WeatherCatV1.14B232,2013-07-16 17:57:00,
2013-07-16 12:02:00,82.8,52.3,29.73,East,89,1.0,3.0,35,0.00,,,0.00,WeatherCatV1.14B232,2013-07-16 18:02:00,
2013-07-16 12:07:00,82.5,53.6,29.73,North,354,2.0,3.0,37,0.00,,,0.00,WeatherCatV1.14B232,2013-07-16 18:07:00,
2013-07-16 12:12:00,82.5,52.8,29.73,East,85,1.0,2.0,36,0.00,,,0.00,WeatherCatV1.14B232,2013-07-16 18:12:00,
2013-07-16 12:17:00,82.6,52.9,29.73,NW,320,2.0,3.0,36,0.00,,,0.00,WeatherCatV1.14B232,2013-07-16 18:17:00,
2013-07-16 12:22:00,83.0,53.3,29.73,ENE,68,2.0,3.0,36,0.00,,,0.00,WeatherCatV1.14B232,2013-07-16 18:22:00,
2013-07-16 12:27:00,83.6,52.2,29.72,North,354,2.0,3.0,34,0.00,,,0.00,WeatherCatV1.14B232,2013-07-16 18:27:00,
2013-07-16 12:32:00,83.9,51.7,29.72,North,353,7.0,7.0,33,0.00,,,0.00,WeatherCatV1.14B232,2013-07-16 18:32:00,
2013-07-16 12:37:00,83.1,51.0,29.72,NNE,29,3.0,9.0,33,0.00,,,0.00,WeatherCatV1.14B232,2013-07-16 18:37:00,
2013-07-16 12:42:00,83.0,52.5,29.72,NNE,23,4.0,5.0,35,0.00,,,0.00,WeatherCatV1.14B232,2013-07-16 18:42:00,
2013-07-16 12:47:00,83.6,52.2,29.72,NW,315,2.0,7.0,34,0.00,,,0.00,WeatherCatV1.14B232,2013-07-16 18:47:00,
2013-07-16 12:52:00,83.5,50.5,29.71,NNE,29,2.0,3.0,32,0.00,,,0.00,WeatherCatV1.14B232,2013-07-16 18:52:00,
2013-07-16 12:57:00,84.2,50.3,29.71,SE,139,0.0,1.0,31,0.00,,,0.00,WeatherCatV1.14B232,2013-07-16 18:57:00,
2013-07-16 13:02:00,85.4,50.4,29.71,North,5,1.0,1.0,30,0.00,,,0.00,WeatherCatV1.14B232,2013-07-16 19:02:00,
2013-07-16 13:07:00,85.4,53.0,29.71,North,11,2.0,8.0,33,0.00,,,0.00,WeatherCatV1.14B232,2013-07-16 19:07:00,
2013-07-16 13:12:00,85.5,49.6,29.71,NNE,25,3.0,3.0,29,0.00,,,0.00,WeatherCatV1.14B232,2013-07-16 19:12:00,
2013-07-16 13:17:00,85.5,50.5,29.71,East,92,0.0,5.0,30,0.00,,,0.00,WeatherCatV1.14B232,2013-07-16 19:17:00,
2013-07-16 13:22:00,86.5,50.4,29.70,North,8,1.0,1.0,29,0.00,,,0.00,WeatherCatV1.14B232,2013-07-16 19:22:00,
2013-07-16 13:27:00,87.0,49.9,29.70,North,0,1.0,3.0,28,0.00,,,0.00,WeatherCatV1.14B232,2013-07-16 19:27:00,
2013-07-16 13:32:00,86.7,50.6,29.70,SW,224,3.0,4.0,29,0.00,,,0.00,WeatherCatV1.14B232,2013-07-16 19:32:00,
2013-07-16 13:37:00,86.4,49.4,29.70,NW,309,1.0,2.0,28,0.00,,,0.00,WeatherCatV1.14B232,2013-07-16 19:37:00,
2013-07-16 13:42:00,86.8,50.7,29.69,North,353,1.0,4.0,29,0.00,,,0.00,WeatherCatV1.14B232,2013-07-16 19:42:00,
2013-07-16 13:47:00,87.3,49.2,29.69,West,274,0.0,2.0,27,0.00,,,0.00,WeatherCatV1.14B232,2013-07-16 19:47:00,
2013-07-16 13:52:00,87.6,49.4,29.69,North,350,3.0,6.0,27,0.00,,,0.00,WeatherCatV1.14B232,2013-07-16 19:52:00,
2013-07-16 13:57:00,86.8,50.7,29.69,ENE,63,3.0,7.0,29,0.00,,,0.00,WeatherCatV1.14B232,2013-07-16 19:57:00,
2013-07-16 14:02:00,86.8,47.8,29.69,WNW,294,1.0,2.0,26,0.00,,,0.00,WeatherCatV1.14B232,2013-07-16 20:02:00,
2013-07-16 14:07:00,87.6,49.4,29.69,SW,218,1.0,3.0,27,0.00,,,0.00,WeatherCatV1.14B232,2013-07-16 20:07:00,
2013-07-16 14:12:00,87.5,49.4,29.68,East,95,3.0,7.0,27,0.00,,,0.00,WeatherCatV1.14B232,2013-07-16 20:12:00,
2013-07-16 14:17:00,87.8,47.6,29.68,SSW,204,1.0,4.0,25,0.00,,,0.00,WeatherCatV1.14B232,2013-07-16 20:17:00,
2013-07-16 14:22:00,87.9,47.6,29.68,WNW,291,0.0,1.0,25,0.00,,,0.00,WeatherCatV1.14B232,2013-07-16 20:22:00,
2013-07-16 14:27:00,88.3,50.0,29.67,South,173,4.0,7.0,27,0.00,,,0.00,WeatherCatV1.14B232,2013-07-16 20:27:00,
2013-07-16 14:32:00,88.1,47.8,29.67,NW,304,0.0,1.0,25,0.00,,,0.00,WeatherCatV1.14B232,2013-07-16 20:32:00,
2013-07-16 14:37:00,89.0,47.5,29.67,South,173,1.0,3.0,24,0.00,,,0.00,WeatherCatV1.14B232,2013-07-16 20:37:00,
2013-07-16 14:42:00,89.9,49.3,29.67,WNW,283,0.0,1.0,25,0.00,,,0.00,WeatherCatV1.14B232,2013-07-16 20:42:00,
2013-07-16 14:47:00,90.1,50.5,29.66,North,358,2.0,3.0,26,0.00,,,0.00,WeatherCatV1.14B232,2013-07-16 20:47:00,
2013-07-16 14:52:00,89.5,45.6,29.66,NNW,343,2.0,8.0,22,0.00,,,0.00,WeatherCatV1.14B232,2013-07-16 20:52:00,
2013-07-16 14:57:00,89.0,47.5,29.66,WNW,288,1.0,2.0,24,0.00,,,0.00,WeatherCatV1.14B232,2013-07-16 20:57:00,
2013-07-16 15:02:00,89.4,47.8,29.66,NNE,29,2.0,2.0,24,0.00,,,0.00,WeatherCatV1.14B232,2013-07-16 21:02:00,
2013-07-16 15:07:00,89.0,46.4,29.66,ENE,72,3.0,5.0,23,0.00,,,0.00,WeatherCatV1.14B232,2013-07-16 21:07:00,
2013-07-16 15:12:00,88.5,47.1,29.65,ENE,74,2.0,7.0,24,0.00,,,0.00,WeatherCatV1.14B232,2013-07-16 21:12:00,
2013-07-16 15:17:00,88.9,47.4,29.65,South,172,5.0,5.0,24,0.00,,,0.00,WeatherCatV1.14B232,2013-07-16 21:17:00,
2013-07-16 15:22:00,89.2,49.8,29.65,East,86,3.0,5.0,26,0.00,,,0.00,WeatherCatV1.14B232,2013-07-16 21:22:00,
2013-07-16 15:27:00,89.2,47.6,29.64,SE,124,2.0,5.0,24,0.00,,,0.00,WeatherCatV1.14B232,2013-07-16 21:27:00,
2013-07-16 15:32:00,89.1,45.3,29.64,East,82,2.0,5.0,22,0.00,,,0.00,WeatherCatV1.14B232,2013-07-16 21:32:00,
2013-07-16 15:37:00,89.3,45.4,29.64,ESE,112,1.0,4.0,22,0.00,,,0.00,WeatherCatV1.14B232,2013-07-16 21:37:00,
2013-07-16 15:42:00,89.5,47.9,29.64,West,266,0.0,4.0,24,0.00,,,0.00,WeatherCatV1.14B232,2013-07-16 21:42:00,
2013-07-16 15:47:00,90.1,46.1,29.64,South,188,0.0,0.0,22,0.00,,,0.00,WeatherCatV1.14B232,2013-07-16 21:47:00,
2013-07-16 15:52:00,90.9,47.9,29.64,ENE,72,3.0,7.0,23,0.00,,,0.00,WeatherCatV1.14B232,2013-07-16 21:52:00,
2013-07-16 15:57:00,90.4,47.5,29.63,NE,50,0.0,2.0,23,0.00,,,0.00,WeatherCatV1.14B232,2013-07-16 21:57:00,
2013-07-16 16:02:00,91.1,45.7,29.63,NNW,333,1.0,2.0,21,0.00,,,0.00,WeatherCatV1.14B232,2013-07-16 22:02:00,
2013-07-16 16:07:00,91.3,47.1,29.63,SSE,159,1.0,4.0,22,0.00,,,0.00,WeatherCatV1.14B232,2013-07-16 22:07:00,
2013-07-16 16:12:00,91.3,44.6,29.63,SSE,155,0.0,2.0,20,0.00,,,0.00,WeatherCatV1.14B232,2013-07-16 22:12:00,
2013-07-16 16:17:00,91.0,45.6,29.63,SW,221,4.0,5.0,21,0.00,,,0.00,WeatherCatV1.14B232,2013-07-16 22:17:00,
2013-07-16 16:22:00,90.7,50.0,29.63,NE,44,1.0,5.0,25,0.00,,,0.00,WeatherCatV1.14B232,2013-07-16 22:22:00,
2013-07-16 16:29:00,90.8,46.7,29.63,WNW,298,0.0,4.0,22,0.00,,,0.00,WeatherCatV1.14B232,2013-07-16 22:29:00,
2013-07-16 16:34:00,90.4,46.3,29.63,South,187,3.0,6.0,22,0.00,,,0.00,WeatherCatV1.14B232,2013-07-16 22:34:00,
2013-07-16 16:39:00,90.4,43.8,29.63,South,184,6.0,10.0,20,0.00,,,0.00,WeatherCatV1.14B232,2013-07-16 22:39:00,
2013-07-16 16:44:00,90.0,44.8,29.63,WSW,245,2.0,2.0,21,0.00,,,0.00,WeatherCatV1.14B232,2013-07-16 22:44:00,
2013-07-16 16:49:00,90.4,43.8,29.62,SE,143,0.0,1.0,20,0.00,,,0.00,WeatherCatV1.14B232,2013-07-16 22:49:00,
2013-07-16 16:54:00,90.7,42.7,29.62,SW,223,1.0,2.0,19,0.00,,,0.00,WeatherCatV1.14B232,2013-07-16 22:54:00,
2013-07-16 16:59:00,90.6,45.3,29.62,NNE,19,3.0,4.0,21,0.00,,,0.00,WeatherCatV1.14B232,2013-07-16 22:59:00,
2013-07-16 17:04:00,89.7,50.2,29.62,North,355,9.0,11.0,26,0.00,,,0.00,WeatherCatV1.14B232,2013-07-16 23:04:00,
2013-07-16 17:09:00,89.0,50.6,29.62,North,352,7.0,13.0,27,0.00,,,0.00,WeatherCatV1.14B232,2013-07-16 23:09:00,
2013-07-16 17:14:00,88.8,51.5,29.62,NNW,334,4.0,11.0,28,0.00,,,0.00,WeatherCatV1.14B232,2013-07-16 23:14:00,
2013-07-16 17:19:00,88.6,49.3,29.62,NW,314,6.0,13.0,26,0.00,,,0.00,WeatherCatV1.14B232,2013-07-16 23:19:00,
2013-07-16 17:24:00,88.6,51.3,29.62,NNW,337,8.0,14.0,28,0.00,,,0.00,WeatherCatV1.14B232,2013-07-16 23:24:00,
2013-07-16 17:29:00,88.5,50.2,29.61,NW,322,6.0,11.0,27,0.00,,,0.00,WeatherCatV1.14B232,2013-07-16 23:29:00,
2013-07-16 17:34:00,88.3,49.0,29.62,NW,314,4.0,9.0,26,0.00,,,0.00,WeatherCatV1.14B232,2013-07-16 23:34:00,
2013-07-16 17:39:00,88.3,50.0,29.61,NNW,334,4.0,10.0,27,0.00,,,0.00,WeatherCatV1.14B232,2013-07-16 23:39:00,
2013-07-16 17:44:00,88.4,50.1,29.61,North,4,7.0,13.0,27,0.00,,,0.00,WeatherCatV1.14B232,2013-07-16 23:44:00,
2013-07-16 17:49:00,88.2,50.0,29.61,NNE,29,3.0,6.0,27,0.00,,,0.00,WeatherCatV1.14B232,2013-07-16 23:49:00,
2013-07-16 17:54:00,88.3,51.0,29.61,North,355,2.0,11.0,28,0.00,,,0.00,WeatherCatV1.14B232,2013-07-16 23:54:00,
2013-07-16 17:59:00,87.4,51.2,29.60,SE,130,1.0,4.0,29,0.00,,,0.00,WeatherCatV1.14B232,2013-07-16 23:59:00,
2013-07-16 18:04:00,87.3,48.2,29.60,SE,124,3.0,10.0,26,0.00,,,0.00,WeatherCatV1.14B232,2013-07-17 00:04:00,
2013-07-16 18:09:00,86.9,52.6,29.60,West,260,2.0,7.0,31,0.00,,,0.00,WeatherCatV1.14B232,2013-07-17 00:09:00,
2013-07-16 18:14:00,86.6,51.4,29.60,ENE,65,1.0,8.0,30,0.00,,,0.00,WeatherCatV1.14B232,2013-07-17 00:14:00,
2013-07-16 18:19:00,85.8,51.6,29.61,NNE,19,2.0,9.0,31,0.00,,,0.00,WeatherCatV1.14B232,2013-07-17 00:19:00,
2013-07-16 18:24:00,85.0,51.8,29.61,South,172,1.0,2.0,32,0.00,,,0.00,WeatherCatV1.14B232,2013-07-17 00:24:00,
2013-07-16 18:29:00,85.0,51.8,29.61,West,266,6.0,8.0,32,0.00,,,0.00,WeatherCatV1.14B232,2013-07-17 00:29:00,
2013-07-16 18:34:00,84.8,52.5,29.62,SSW,207,7.0,12.0,33,0.00,,,0.00,WeatherCatV1.14B232,2013-07-17 00:34:00,
2013-07-16 18:39:00,84.2,51.1,29.62,SE,143,15.0,15.0,32,0.00,,,0.00,WeatherCatV1.14B232,2013-07-17 00:39:00,
2013-07-16 18:44:00,83.1,51.0,29.62,SSE,162,14.0,22.0,33,0.00,,,0.00,WeatherCatV1.14B232,2013-07-17 00:44:00,
2013-07-16 18:49:00,82.4,51.2,29.62,WSW,238,10.0,19.0,34,0.00,,,0.00,WeatherCatV1.14B232,2013-07-17 00:49:00,
2013-07-16 18:54:00,82.2,51.0,29.63,SSE,160,10.0,18.0,34,0.00,,,0.00,WeatherCatV1.14B232,2013-07-17 00:54:00,
2013-07-16 18:59:00,82.2,51.8,29.63,WSW,240,4.0,8.0,35,0.00,,,0.00,WeatherCatV1.14B232,2013-07-17 00:59:00,
2013-07-16 19:04:00,82.3,51.9,29.64,West,280,6.0,9.0,35,0.00,,,0.00,WeatherCatV1.14B232,2013-07-17 01:04:00,
2013-07-16 19:09:00,82.0,51.6,29.64,SE,132,14.0,17.0,35,0.00,,,0.00,WeatherCatV1.14B232,2013-07-17 01:09:00,
2013-07-16 19:14:00,82.0,51.6,29.64,SW,229,10.0,17.0,35,0.00,,,0.00,WeatherCatV1.14B232,2013-07-17 01:14:00,
2013-07-16 19:19:00,82.3,51.9,29.64,West,276,3.0,4.0,35,0.00,,,0.00,WeatherCatV1.14B232,2013-07-17 01:19:00,
2013-07-16 19:24:00,82.8,52.3,29.64,West,266,4.0,7.0,35,0.00,,,0.00,WeatherCatV1.14B232,2013-07-17 01:24:00,
2013-07-16 19:29:00,83.2,51.9,29.64,West,281,1.0,3.0,34,0.00,,,0.00,WeatherCatV1.14B232,2013-07-17 01:29:00,
2013-07-16 19:34:00,83.1,51.0,29.64,South,170,5.0,8.0,33,0.00,,,0.00,WeatherCatV1.14B232,2013-07-17 01:34:00,
2013-07-16 19:39:00,82.5,52.1,29.65,SSE,148,3.0,8.0,35,0.00,,,0.00,WeatherCatV1.14B232,2013-07-17 01:39:00,
2013-07-16 19:44:00,81.3,51.0,29.65,SSW,204,3.0,12.0,35,0.00,,,0.00,WeatherCatV1.14B232,2013-07-17 01:44:00,
2013-07-16 19:49:00,80.5,51.8,29.65,South,172,7.0,10.0,37,0.00,,,0.00,WeatherCatV1.14B232,2013-07-17 01:49:00,
2013-07-16 19:54:00,80.1,51.5,29.66,South,180,4.0,9.0,37,0.00,,,0.00,WeatherCatV1.14B232,2013-07-17 01:54:00,
2013-07-16 19:59:00,79.7,51.1,29.66,SW,215,3.0,7.0,37,0.00,,,0.00,WeatherCatV1.14B232,2013-07-17 01:59:00,
2013-07-16 20:04:00,79.2,51.4,29.66,South,180,4.0,9.0,38,0.00,,,0.00,WeatherCatV1.14B232,2013-07-17 02:04:00,
2013-07-16 20:09:00,78.7,51.6,29.67,SSE,165,2.0,8.0,39,0.00,,,0.00,WeatherCatV1.14B232,2013-07-17 02:09:00,
2013-07-16 20:14:00,78.4,52.1,29.67,SE,141,6.0,11.0,40,0.00,,,0.00,WeatherCatV1.14B232,2013-07-17 02:14:00,
2013-07-16 20:19:00,78.2,51.9,29.67,South,174,6.0,12.0,40,0.00,,,0.00,WeatherCatV1.14B232,2013-07-17 02:19:00,
2013-07-16 20:24:00,78.1,51.8,29.67,SW,214,9.0,10.0,40,0.00,,,0.00,WeatherCatV1.14B232,2013-07-17 02:24:00,
2013-07-16 20:29:00,78.1,51.8,29.67,SSE,165,8.0,12.0,40,0.00,,,0.00,WeatherCatV1.14B232,2013-07-17 02:29:00,
2013-07-16 20:34:00,78.1,51.8,29.67,South,174,6.0,8.0,40,0.00,,,0.00,WeatherCatV1.14B232,2013-07-17 02:34:00,
2013-07-16 20:39:00,78.1,51.8,29.67,SW,224,7.0,7.0,40,0.00,,,0.00,WeatherCatV1.14B232,2013-07-17 02:39:00,
2013-07-16 20:44:00,78.0,51.7,29.67,South,174,6.0,6.0,40,0.00,,,0.00,WeatherCatV1.14B232,2013-07-17 02:44:00,
2013-07-16 20:49:00,77.9,52.3,29.68,ESE,108,4.0,8.0,41,0.00,,,0.00,WeatherCatV1.14B232,2013-07-17 02:49:00,
2013-07-16 20:54:00,77.9,51.6,29.68,ESE,121,2.0,9.0,40,0.00,,,0.00,WeatherCatV1.14B232,2013-07-17 02:54:00,
2013-07-16 20:59:00,77.6,52.0,29.68,WSW,242,1.0,2.0,41,0.00,,,0.00,WeatherCatV1.14B232,2013-07-17 02:59:00,
2013-07-16 21:04:00,77.2,52.3,29.69,North,11,0.0,1.0,42,0.00,,,0.00,WeatherCatV1.14B232,2013-07-17 03:04:00,
2013-07-16 21:09:00,77.0,52.1,29.69,NNE,21,0.0,0.0,42,0.00,,,0.00,WeatherCatV1.14B232,2013-07-17 03:09:00,
2013-07-16 21:14:00,76.7,51.9,29.70,SSW,203,0.0,0.0,42,0.00,,,0.00,WeatherCatV1.14B232,2013-07-17 03:14:00,
2013-07-16 21:19:00,76.5,51.7,29.70,SE,144,0.0,0.0,42,0.00,,,0.00,WeatherCatV1.14B232,2013-07-17 03:19:00,
2013-07-16 21:24:00,76.5,51.0,29.71,South,191,0.0,3.0,41,0.00,,,0.00,WeatherCatV1.14B232,2013-07-17 03:24:00,
2013-07-16 21:29:00,76.8,51.9,29.71,South,183,0.0,0.0,42,0.00,,,0.00,WeatherCatV1.14B232,2013-07-17 03:29:00,
2013-07-16 21:34:00,76.6,52.4,29.71,ENE,71,1.0,1.0,43,0.00,,,0.00,WeatherCatV1.14B232,2013-07-17 03:34:00,
2013-07-16 21:39:00,75.7,52.8,29.72,SW,228,1.0,3.0,45,0.00,,,0.00,WeatherCatV1.14B232,2013-07-17 03:39:00,
2013-07-16 21:44:00,75.0,53.4,29.72,SSW,201,2.0,2.0,47,0.00,,,0.00,WeatherCatV1.14B232,2013-07-17 03:44:00,
2013-07-16 21:49:00,74.3,53.9,29.72,SW,231,2.0,2.0,49,0.00,,,0.00,WeatherCatV1.14B232,2013-07-17 03:49:00,
2013-07-16 21:54:00,74.0,54.2,29.72,SW,215,1.0,2.0,50,0.00,,,0.00,WeatherCatV1.14B232,2013-07-17 03:54:00,
2013-07-16 21:59:00,73.8,53.4,29.73,West,263,0.0,1.0,49,0.00,,,0.00,WeatherCatV1.14B232,2013-07-17 03:59:00,
2013-07-16 22:01:00,73.8,54.0,29.73,South,191,0.0,1.0,50,0.00,,,0.00,WeatherCatV1.14B232,2013-07-17 04:01:00,
2013-07-16 22:06:00,73.6,53.2,29.73,SSE,165,1.0,3.0,49,0.00,,,0.00,WeatherCatV1.14B232,2013-07-17 04:06:00,
2013-07-16 22:11:00,73.3,53.5,29.73,SW,232,1.0,3.0,50,0.00,,,0.00,WeatherCatV1.14B232,2013-07-17 04:11:00,
2013-07-16 22:16:00,73.1,53.3,29.73,SSE,166,0.0,2.0,50,0.00,,,0.00,WeatherCatV1.14B232,2013-07-17 04:16:00,
2013-07-16 22:21:00,72.9,53.7,29.73,South,187,2.0,2.0,51,0.00,,,0.00,WeatherCatV1.14B232,2013-07-17 04:21:00,
2013-07-16 22:26:00,73.0,53.8,29.74,West,259,1.0,1.0,51,0.00,,,0.00,WeatherCatV1.14B232,2013-07-17 04:26:00,
2013-07-16 22:31:00,72.7,54.0,29.74,SE,143,0.0,1.0,52,0.00,,,0.00,WeatherCatV1.14B232,2013-07-17 04:31:00,
2013-07-16 22:36:00,72.2,54.6,29.74,SSE,162,1.0,1.0,54,0.00,,,0.00,WeatherCatV1.14B232,2013-07-17 04:36:00,
2013-07-16 22:41:00,71.8,54.7,29.74,ESE,108,1.0,3.0,55,0.00,,,0.00,WeatherCatV1.14B232,2013-07-17 04:41:00,
2013-07-16 22:46:00,72.4,54.8,29.75,NE,53,1.0,2.0,54,0.00,,,0.00,WeatherCatV1.14B232,2013-07-17 04:46:00,
2013-07-16 22:51:00,72.4,55.3,29.75,ENE,57,1.0,2.0,55,0.00,,,0.00,WeatherCatV1.14B232,2013-07-17 04:51:00,
2013-07-16 22:55:00,72.1,55.0,29.75,East,82,0.0,2.0,55,0.00,,,0.00,WeatherCatV1.14B232,2013-07-17 04:55:00,
2013-07-16 22:58:00,72.0,54.9,29.76,NNW,340,0.0,2.0,55,0.00,,,0.00,WeatherCatV1.14B232,2013-07-17 04:58:00,
2013-07-16 23:03:00,71.8,55.2,29.76,North,11,0.0,1.0,56,0.00,,,0.00,WeatherCatV1.14B232,2013-07-17 05:03:00,
2013-07-16 23:08:00,71.8,55.7,29.76,East,86,2.0,2.0,57,0.00,,,0.00,WeatherCatV1.14B232,2013-07-17 05:08:00,
2013-07-16 23:13:00,71.9,54.8,29.76,ESE,113,0.0,1.0,55,0.00,,,0.00,WeatherCatV1.14B232,2013-07-17 05:13:00,
2013-07-16 23:18:00,72.0,54.9,29.76,ENE,71,1.0,1.0,55,0.00,,,0.00,WeatherCatV1.14B232,2013-07-17 05:18:00,
2013-07-16 23:23:00,71.9,54.8,29.76,SW,228,2.0,3.0,55,0.00,,,0.00,WeatherCatV1.14B232,2013-07-17 05:23:00,
2013-07-16 23:28:00,71.8,54.7,29.76,WSW,243,0.0,0.0,55,0.00,,,0.00,WeatherCatV1.14B232,2013-07-17 05:28:00,
2013-07-16 23:33:00,71.7,55.2,29.77,WSW,243,0.0,0.0,56,0.00,,,0.00,WeatherCatV1.14B232,2013-07-17 05:33:00,
2013-07-16 23:37:00,71.7,54.7,29.77,East,100,0.0,2.0,55,0.00,,,0.00,WeatherCatV1.14B232,2013-07-17 05:37:00,
2013-07-16 23:42:00,71.6,54.6,29.77,East,101,0.0,0.0,55,0.00,,,0.00,WeatherCatV1.14B232,2013-07-17 05:42:00,
2013-07-16 23:47:00,71.4,55.4,29.78,East,94,0.0,2.0,57,0.00,,,0.00,WeatherCatV1.14B232,2013-07-17 05:47:00,
2013-07-16 23:52:00,71.1,55.6,29.78,SSW,207,0.0,0.0,58,0.00,,,0.00,WeatherCatV1.14B232,2013-07-17 05:52:00,
2013-07-16 23:57:00,70.8,55.8,29.78,SSW,207,0.0,0.0,59,0.00,,,0.00,WeatherCatV1.14B232,2013-07-17 05:57:00,